Préparation des vols

Pour bien préparer vos sorties, pensez à télécharger la fiche technique de votre avion, la check-list, le manuel de vol, le devis de centrage ou encore un modèle de Log de Nav.

Robin DR 400 120 (F-GSBN)

Type : 3/4 places instruction, entraînement, voyage.

Moteur : Lycoming 4 cyl. à plat, 120 cv.

Performances : 190 km/h

Autonomie : 4 h soit environ 760 km franchissables.

Avionique : 1 radio com Bendix/King, 1 VOR, 1 transpondeur mode S, intercom 2 voies type.

 

Robin DR 400 120 (F-GNNY)

Type : 3/4 places instruction, entraînement, voyage.

Moteur : Lycoming 4 cyl. à plat, 120 cv.

Performances : 190 km/h

Autonomie : 4 h soit environ 760 km franchissables.

Avionique : 1 radio com Bendix/King, 1 VOR, 1 transpondeur mode S, intercom 2 voies type.

 

Robin DR 400 140 B (F-GHPJ)

Type : 4 places, pour entraînement et voyage.

Moteur : Robin Lycoming 4 cyl. à plat, 160 cv.

Performances : 206 km/h

Autonomie : 3 h 30 min soit environ 720 km de distance franchissable.

Avionique : 1 radio com Bendix/King, 1 VOR, 1 transpondeur mode S, intercom 4 voies.

 

Robin DR 400 180 (F-BVMP)

Type : 4 places pour le voyage.

Moteur : Lycoming 4 cyl. à plat, 180 cv.

Performances : 250 km/h

Autonomie : 4 h soit environ 1000 km franchissables.

Avionique : 1 radio 8.33, 1 transpondeur mode S et 1 Garmin GNS 430

 

Piper Archer II (PA 28) (F-GALA)

 

 


Sab’in Shoot, photographe à Villepreux

Type : 4 places, pour entraînement, voyage.

Moteur : Lycoming 4 cyl. à plat, 180 cv.

Performances : 220 km/h

Autonomie : 5 h30 soit environ 1200 km de distance franchissable.

Avionique : Radio intégrée au système GPS Garmin GNS 430, 2 VOR, 1 DME, 1 transpondeur mode S, pilote automatique 2 axes, intercom 4 voies et boite de mélange.

 

Télécharger l’aide mémoire de la radio GTR 225A

Télécharger un log de nav

Log 1

Cliquez sur le formulaire pour le télécharger

Log_1*Notice d’utilisation*

Ce Log de Nav a été optimisé pour rendre les calculs automatiques sous Excel. Indiquez simplement vos points de report, les altitudes et les distances en NM. La feuille calcule alors le temps sans vent pour chaque étape et donne le total, qu’elle convertit en heure-minutes. Elle calcule également la distance totale et la convertit en kilomètres. Enfin, elle affiche le résultat du devis carburant, calculé automatiquement par le 2ème feuillet. Vous pouvez également inscrire préalablement les fréquences Radio et Nav. Les autres cases sont à remplir pendant le vol : date, top départ, heure estimée (grisée), heure réelle,horamètre, Atis…
Bons vols à tous !
Guillaume

Log 2

Cliquez sur le formulaire pour le télécharger

Log_2

Log 3

 Cliquez sur le formulaire pour le télécharger

Log_3

L’alphabet Morse et l’alphabet international

Alphabet International

Nos coordonnées

Aéroclub Renault

Aérodrome de Chavenay

78450 Chavenay-Villepreux

telephone

Atis

Télécharger la VAC LFPX

Télécharger le calcul de centrage

Télécharger la feuille ATIS

Télécharger le mémo VFR 2018-2019

METARS / TAF de Toussus, Evreux, Orly et Roissy

Toussus

LFPN 161400Z AUTO 21015KT 3900 -RA BR BKN012 OVC018 15/13 Q1009 TEMPO 22020G30KT RA BKN008

TAF TAF AMD LFPN 132015Z 1320/1420 17005KT 5000 BKN025 TEMPO 1320/1324 2000 BR OVC008 PROB30 TEMPO 1320/1324 0800 FG OVC002

Evreux

LFOE 161400Z AUTO 20019KT 9999 -RA OVC015/// ///TCU 15/13 Q1007 TEMPO 2000 DZRA OVC006 BECMG 20020G30KT

TAF LFOE 160800Z 1609/1709 20020G30KT 9999 OVC012 TEMPO 1609/1624 2000 DZRA OVC006 TEMPO 1609/1612 BKN020 BECMG 1622/1624 22006KT BECMG 1700/1702 BKN004 TEMPO 1707/1709 4000 -RA

Orly

LFPO 161400Z 20015G25KT 4000 -RA BR BKN007 BKN017 14/13 Q1009 TEMPO BKN012

TAF AMD LFPO 161354Z 1613/1718 21015G25KT 9999 -RA BKN016 PROB40 TEMPO 1613/1619 22020G30KT TEMPO 1614/1617 2500 RA BKN008 TEMPO 1617/1623 BKN006 BECMG 1623/1701 20010KT NSW BKN012 TEMPO 1701/1705 BKN008 TEMPO 1705/1712 3500 -RA BKN006 BECMG 1712/1714 BKN020 TEMPO 1715/1718 22015G25KT 4000 -SHRA BKN014 SCT020TCU

Roissy

LFPG 161400Z 18017KT 5000 -DZ BKN011 BKN020 15/13 Q1009 TEMPO 200G20G30KT

TAF LFPG 161100Z 1612/1718 20015G25KT 9999 BKN020 BKN030 TX16/1712Z TN13/1705Z TEMPO 1612/1710 BKN012 PROB40 TEMPO 1612/1710 2500 RA BKN006 BECMG 1621/1623 21010KT PROB40 TEMPO 1714/1716 19015G25KT

Share This